394  
SXUS52 KTAE 310816  
OSOTAE  
OSOTAE  
NORTH FLORIDA/SOUTH ALABAMA/SOUTHWEST GEORGIA WEATHER ROUNDUP  
NATIONAL WEATHER SERVICE TALLAHASSEE FLORIDA  
400 AM EDT SUN MAY 31 2020  
 
NOTE: "FAIR" INDICATES FEW OR NO CLOUDS BELOW 12,000 FEET WITH NO  
SIGNIFICANT WEATHER AND/OR OBSTRUCTIONS TO VISIBILITY.  
 
!FLZ017-115-028-034-025-310900   
..NORTH FLORIDA
 
 
 
CITY SKY/WX TMP DP RH WIND PRES REMARKS  
TALL INTL ARPT CLOUDY 75 72 90 CALM 29.99F  
FSU LOVE BLDG N/A 75 73 94 W3 N/A  
APALACHICOLA CLEAR 75 74 96 NW5 29.99F FOG  
PERRY NOT AVBL  
CROSS CITY CLEAR 71 71 98 CALM 29.99F  
JACKSONVILLE PTCLDY 75 71 87 W5 29.96F  

 
 
!FLZ112-006-005-002-011-310900   
..FLORIDA PANHANDLE
 
 
 
CITY SKY/WX TMP DP RH WIND PRES REMARKS  
MARIANNA CLEAR 72 70 93 CALM 30.00R  
BONIFAY FAIR 70 68 93 CALM 30.02R  
PANAMA CITY NW FAIR 71 68 90 NW5 29.99F FOG  
TYNDALL AFB CLEAR 75 73 93 NW5 29.99  
TYND DRONE APT FAIR 77 74 92 CALM 29.99F  
DE FUNIAK SPR FAIR 72 66 83 N5 30.03S  
EGLIN AFB CLEAR 74 67 78 N5 30.00  
DESTIN CLEAR 78 67 68 N7 30.01S  
HURLBURT CLEAR 72 67 82 NW3 30.00  
CRESTVIEW PTCLDY 73 66 78 N3 30.03S  
PENSACOLA CLEAR 76 66 71 N6 30.02S  

 
 
!ALZ063-066-310900   
..SOUTH ALABAMA
 
 
 
CITY SKY/WX TMP DP RH WIND PRES REMARKS  
DOTHAN CLEAR 73 66 78 N5 30.05S  
OZARK CAIRNS CLEAR 70 65 85 CALM 30.02S  
FT RUCKER HELI CLEAR 66 66 100 CALM 30.02S  
RUCKER HELI 3 FAIR 72 66 80 N5 30.02S  
RUCKER HELI 2 FAIR 70 66 87 CALM 30.01S  
FLORALA APT NOT AVBL  
ANDALUSIA CLEAR 73 65 75 CALM 30.03  
TROY CLEAR 67 64 90 CALM 30.04S  
EUFALA NOT AVBL  
MOBILE PTCLDY 72 64 76 N5 30.05S  

 
 
!GAZ120>161-310900   
..SOUTHWEST AND SOUTH CENTRAL GEORGIA
 
 
 
CITY SKY/WX TMP DP RH WIND PRES REMARKS  
THOMASVILLE FAIR 73 72 94 W6 30.01S  
BAINBRIDGE CLEAR 72 71 95 CALM 30.00F  
MOODY AFB CLEAR 74 71 91 CALM 29.97  
VALDOSTA CLEAR 70 67 90 CALM 29.98F  
MOULTRIE CLEAR 72 70 94 CALM 30.00F  
BLAKELY CLEAR 66 61 82 CALM 30.01S  
ALBANY CLEAR 71 68 90 N5 30.01F  
TIFTON FAIR 71 70 96 CALM 29.99  
FITZGERALD FAIR 71 71 99 CALM 30.01F  
CORDELE FAIR 68 66 92 CALM 30.01F  
AMERICUS FAIR 72 64 78 CALM 30.03S  
HOMERVILLE FAIR 70 68 94 CALM 29.98F  

 
 
!GMZ750-755-770-775-310900   
..COASTAL AND BUOY OBS
 
 
 
STATION/POSITION TIME TEMP WIND PRES VSBY WAVE  
AIR SEA DIR/SP/G HT/PER  
(UTC) (F) (DEG/KT/KT) (MB) (MI) (FT/S)  
KEATON BEACH 0800 80 290/ 11/ 13 1015.6F  
CEDAR KEY 0800 79 300/ 5/ 7 1015.9F  
C TOWER 0800 79 290/ 8/ 9 1016.0F  
APALACHICOLA BUO 0750 270/ 6/ 6 1016.5F 1/ 7  
PANAMA CITY BUOY 0800 81 300/ 4/ 6 1016.1  
MOBILE BUOY 0800 80 330/ 8/ 8 1016.9  
ORANGE BCH AL BU 0800 80 81 20/ 10/ 14 1016.7  

 
 
 
CLICK HERE TO GO TO PREVIOUS BULLETINS.

The Nexlab FL Page
The Nexlab GA Page
The Nexlab AL Page Main Text Page